TKJ2MS LATI-LTFJ

Flight info

Callsign TKJ2MS
Flight time 1h 23m
Altitude 35000
Route ODRAS DCT MAVAR DCT GOSTI DCT VELBA P127 ROVDO N739 ADORU UM19 IBODU
Aircraft B738/M-SDE2E3FGHIRWXY/LB1

Departure

Time 2026-05-08 09:53
Airport Tirana International Airport Mother Teresa (LATI)

Arrival

Time 2026-05-08 11:16
Airport Istanbul Sabiha Gökçen International Airport (LTFJ)
Time Latitude Longitude Altitude Speed Heading
2026-05-08 09:16 41.41990 19.71503 127 ft 0 kts 265°
2026-05-08 09:42 41.41991 19.71514 131 ft 4 kts 265°
2026-05-08 09:42 41.41993 19.71544 126 ft 4 kts 273°
2026-05-08 09:42 41.41985 19.71569 131 ft 4 kts 341°
2026-05-08 09:43 41.41959 19.71574 125 ft 3 kts 355°
2026-05-08 09:43 41.41956 19.71574 131 ft 1 kts 354°
2026-05-08 09:47 41.41958 19.71574 131 ft 1 kts 354°
2026-05-08 09:47 41.41980 19.71571 126 ft 5 kts 354°
2026-05-08 09:47 41.42017 19.71566 131 ft 5 kts 354°
2026-05-08 09:48 41.42054 19.71561 131 ft 5 kts 354°
2026-05-08 09:48 41.42100 19.71555 128 ft 8 kts 354°
2026-05-08 09:48 41.42160 19.71547 131 ft 9 kts 354°
2026-05-08 09:48 41.42225 19.71538 131 ft 10 kts 354°
2026-05-08 09:49 41.42296 19.71529 127 ft 11 kts 354°
2026-05-08 09:49 41.42371 19.71519 129 ft 11 kts 355°
2026-05-08 09:49 41.42444 19.71511 128 ft 10 kts 355°
2026-05-08 09:49 41.42515 19.71502 128 ft 10 kts 354°
2026-05-08 09:50 41.42584 19.71492 127 ft 10 kts 354°
2026-05-08 09:50 41.42653 19.71511 128 ft 10 kts 40°
2026-05-08 09:50 41.42675 19.71599 127 ft 10 kts 83°
2026-05-08 09:50 41.42682 19.71690 126 ft 10 kts 85°
2026-05-08 09:51 41.42688 19.71784 126 ft 11 kts 85°
2026-05-08 09:51 41.42691 19.71876 125 ft 8 kts 106°
2026-05-08 09:51 41.42652 19.71899 125 ft 0 kts 175°
2026-05-08 09:52 41.42633 19.71902 121 ft 19 kts 175°
2026-05-08 09:52 41.42224 19.71956 120 ft 97 kts 174°
2026-05-08 09:52 41.41345 19.72078 134 ft 153 kts 173°
2026-05-08 09:52 41.40227 19.72268 568 ft 170 kts 171°
2026-05-08 09:53 41.39016 19.72492 1158 ft 182 kts 170°
2026-05-08 09:53 41.37845 19.72659 2078 ft 162 kts 170°
2026-05-08 09:53 41.36703 19.72815 2357 ft 168 kts 169°
2026-05-08 09:53 41.35537 19.72967 2735 ft 169 kts 171°
2026-05-08 09:54 41.34360 19.73102 3056 ft 170 kts 168°
2026-05-08 09:54 41.33166 19.73280 3292 ft 180 kts 168°
2026-05-08 09:54 41.31868 19.73480 3449 ft 198 kts 168°
2026-05-08 09:54 41.30418 19.73697 3665 ft 222 kts 169°
2026-05-08 09:55 41.28831 19.73928 4158 ft 233 kts 170°
2026-05-08 09:55 41.27155 19.74176 4476 ft 253 kts 171°
2026-05-08 09:55 41.25366 19.74434 5178 ft 261 kts 171°
2026-05-08 09:55 41.23574 19.74689 6226 ft 258 kts 172°
2026-05-08 09:56 41.21767 19.74993 6952 ft 265 kts 165°
2026-05-08 09:56 41.20208 19.76216 7817 ft 265 kts 132°
2026-05-08 09:56 41.19357 19.78402 8566 ft 275 kts 106°
2026-05-08 09:56 41.19278 19.80974 9288 ft 288 kts 84°
2026-05-08 09:57 41.21415 19.85622 10424 ft 320 kts 39°
2026-05-08 09:57 41.23426 19.87134 10595 ft 345 kts 25°
2026-05-08 09:57 41.25697 19.88354 10765 ft 368 kts 21°
2026-05-08 09:58 41.28144 19.89573 11205 ft 379 kts 22°
2026-05-08 09:58 41.30619 19.90839 11867 ft 384 kts 22°
2026-05-08 09:58 41.33126 19.92179 12430 ft 392 kts 23°
2026-05-08 09:58 41.35663 19.93578 13060 ft 398 kts 23°
2026-05-08 09:59 41.38238 19.95027 13709 ft 404 kts 23°
2026-05-08 09:59 41.40843 19.96507 14334 ft 409 kts 23°
2026-05-08 09:59 41.43472 19.98005 15015 ft 412 kts 22°
2026-05-08 09:59 41.46117 19.99514 15752 ft 415 kts 22°
2026-05-08 10:00 41.48778 20.00962 16840 ft 408 kts 20°
2026-05-08 10:00 41.51299 20.02724 17428 ft 417 kts 39°
2026-05-08 10:00 41.53183 20.05673 17815 ft 424 kts 64°
2026-05-08 10:00 41.54093 20.09407 18312 ft 425 kts 83°
2026-05-08 10:01 41.54730 20.13290 18841 ft 432 kts 75°
2026-05-08 10:01 41.55759 20.17077 19403 ft 436 kts 69°
2026-05-08 10:01 41.56938 20.20825 20010 ft 439 kts 68°
2026-05-08 10:01 41.58154 20.24586 20539 ft 442 kts 67°
2026-05-08 10:02 41.59354 20.28313 21187 ft 441 kts 68°
2026-05-08 10:02 41.60570 20.32158 21608 ft 448 kts 68°
2026-05-08 10:02 41.61761 20.35980 21986 ft 454 kts 68°
2026-05-08 10:02 41.62969 20.39886 22469 ft 456 kts 68°
2026-05-08 10:03 41.64197 20.43817 22991 ft 459 kts 68°
2026-05-08 10:03 41.65425 20.47775 23515 ft 462 kts 69°
2026-05-08 10:03 41.66631 20.51764 24026 ft 462 kts 69°
2026-05-08 10:03 41.67773 20.55803 24464 ft 465 kts 71°
2026-05-08 10:04 41.68859 20.59863 24938 ft 465 kts 72°
2026-05-08 10:04 41.69874 20.63976 25307 ft 467 kts 73°
2026-05-08 10:04 41.70852 20.68131 25769 ft 468 kts 73°
2026-05-08 10:04 41.71826 20.72287 26142 ft 468 kts 73°
2026-05-08 10:05 41.72825 20.76467 26404 ft 473 kts 73°
2026-05-08 10:05 41.73844 20.80671 26794 ft 475 kts 73°
2026-05-08 10:05 41.74860 20.84875 27267 ft 474 kts 73°
2026-05-08 10:05 41.75911 20.89067 27583 ft 476 kts 72°
2026-05-08 10:06 41.76968 20.93294 27853 ft 479 kts 73°
2026-05-08 10:06 41.77988 20.97545 28143 ft 481 kts 73°
2026-05-08 10:06 41.78980 21.01713 28484 ft 485 kts 73°
2026-05-08 10:06 41.80018 21.05992 28950 ft 481 kts 73°
2026-05-08 10:07 41.81071 21.10262 29196 ft 484 kts 74°
2026-05-08 10:07 41.81765 21.14670 29444 ft 484 kts 84°
2026-05-08 10:07 41.82149 21.19152 29823 ft 484 kts 85°
2026-05-08 10:07 41.82507 21.23578 30249 ft 482 kts 85°
2026-05-08 10:08 41.82878 21.28023 30761 ft 477 kts 85°
2026-05-08 10:08 41.83258 21.32435 31186 ft 475 kts 85°
2026-05-08 10:08 41.83649 21.36832 31500 ft 475 kts 84°
2026-05-08 10:08 41.84050 21.41231 31797 ft 475 kts 84°
2026-05-08 10:09 41.84449 21.45624 32105 ft 475 kts 84°
2026-05-08 10:09 41.84849 21.50009 32509 ft 471 kts 84°
2026-05-08 10:09 41.85169 21.54364 32826 ft 469 kts 86°
2026-05-08 10:09 41.85547 21.58706 32996 ft 469 kts 83°
2026-05-08 10:10 41.86024 21.63046 33156 ft 472 kts 83°
2026-05-08 10:10 41.86465 21.67417 33465 ft 472 kts 84°
2026-05-08 10:10 41.86872 21.71784 33810 ft 471 kts 84°
2026-05-08 10:10 41.87259 21.76142 34170 ft 469 kts 85°
2026-05-08 10:11 41.87635 21.80488 34430 ft 468 kts 85°
2026-05-08 10:11 41.88016 21.84836 34489 ft 473 kts 85°
2026-05-08 10:11 41.88403 21.89184 34650 ft 475 kts 85°
2026-05-08 10:11 41.88787 21.93583 34919 ft 475 kts 85°
2026-05-08 10:12 41.89168 21.97992 35080 ft 477 kts 85°
2026-05-08 10:12 41.89540 22.02304 35074 ft 480 kts 85°
2026-05-08 10:12 41.90310 22.11208 35087 ft 479 kts 85°
2026-05-08 10:13 41.91162 22.20035 35065 ft 476 kts 85°
2026-05-08 10:13 41.91807 22.28892 35068 ft 477 kts 86°
2026-05-08 10:14 41.92709 22.37698 35097 ft 474 kts 85°
2026-05-08 10:14 41.93357 22.46504 35083 ft 473 kts 86°
2026-05-08 10:15 41.93971 22.55305 35093 ft 475 kts 85°
2026-05-08 10:15 41.94728 22.64078 35108 ft 477 kts 85°
2026-05-08 10:16 41.95473 22.72967 35108 ft 479 kts 86°
2026-05-08 10:16 41.96188 22.81881 35090 ft 481 kts 85°
2026-05-08 10:17 41.96928 22.90830 35103 ft 482 kts 85°
2026-05-08 10:17 41.97448 22.99809 35116 ft 482 kts 89°
2026-05-08 10:18 41.97796 23.08672 35111 ft 483 kts 89°
2026-05-08 10:18 41.98191 23.17711 35107 ft 485 kts 89°
2026-05-08 10:19 41.98622 23.26768 35123 ft 486 kts 88°
2026-05-08 10:20 41.99281 23.40379 35132 ft 487 kts 89°
2026-05-08 10:20 41.99707 23.49465 35114 ft 489 kts 89°
2026-05-08 10:21 42.00115 23.58564 35120 ft 489 kts 89°
2026-05-08 10:21 42.00536 23.67682 35116 ft 488 kts 89°
2026-05-08 10:22 42.00944 23.76723 35097 ft 487 kts 89°
2026-05-08 10:22 42.01342 23.85811 35103 ft 486 kts 89°
2026-05-08 10:23 42.01730 23.94885 35104 ft 486 kts 89°
2026-05-08 10:23 42.02106 24.03807 35120 ft 485 kts 89°
2026-05-08 10:24 42.02480 24.12865 35106 ft 486 kts 88°
2026-05-08 10:24 42.02849 24.21962 35119 ft 487 kts 88°
2026-05-08 10:25 42.03210 24.31037 35101 ft 490 kts 88°
2026-05-08 10:25 42.03568 24.40193 35084 ft 490 kts 88°
2026-05-08 10:26 42.03919 24.49364 35092 ft 491 kts 88°
2026-05-08 10:26 42.04261 24.58543 35094 ft 491 kts 88°
2026-05-08 10:27 42.04596 24.67736 35082 ft 492 kts 89°
2026-05-08 10:27 42.04927 24.76940 35079 ft 492 kts 88°
2026-05-08 10:28 42.05244 24.86072 35082 ft 491 kts 90°
2026-05-08 10:28 42.04695 24.95185 35087 ft 489 kts 101°
2026-05-08 10:29 42.03700 25.04090 35077 ft 489 kts 101°
2026-05-08 10:29 42.02744 25.13158 35086 ft 490 kts 100°
2026-05-08 10:30 42.01824 25.22249 35075 ft 491 kts 100°
2026-05-08 10:30 42.00902 25.31343 35087 ft 491 kts 100°
2026-05-08 10:31 41.99969 25.40435 35077 ft 491 kts 100°
2026-05-08 10:31 41.99026 25.49526 35072 ft 490 kts 100°
2026-05-08 10:32 41.98061 25.58593 35082 ft 490 kts 100°
2026-05-08 10:32 41.97256 25.66128 35071 ft 490 kts 100°
2026-05-08 10:33 41.96282 25.75204 35082 ft 490 kts 100°
2026-05-08 10:33 41.95301 25.84284 35081 ft 491 kts 100°
2026-05-08 10:34 41.94310 25.93373 35080 ft 492 kts 100°
2026-05-08 10:34 41.93323 26.02374 35076 ft 494 kts 100°
2026-05-08 10:35 41.92316 26.11504 35086 ft 494 kts 100°
2026-05-08 10:35 41.91298 26.20644 35078 ft 496 kts 100°
2026-05-08 10:36 41.90277 26.29747 35069 ft 497 kts 100°
2026-05-08 10:36 41.89239 26.38940 35087 ft 500 kts 100°
2026-05-08 10:37 41.88192 26.48162 35081 ft 500 kts 100°
2026-05-08 10:37 41.86252 26.57052 35093 ft 495 kts 118°
2026-05-08 10:38 41.82500 26.64675 35097 ft 487 kts 135°
2026-05-08 10:38 41.78084 26.71583 35092 ft 489 kts 134°
2026-05-08 10:39 41.73703 26.78557 35085 ft 490 kts 134°
2026-05-08 10:39 41.69348 26.85564 35088 ft 490 kts 133°
2026-05-08 10:40 41.64975 26.92588 35087 ft 491 kts 134°
2026-05-08 10:40 41.60598 26.99601 35104 ft 492 kts 134°
2026-05-08 10:41 41.56257 27.06536 35102 ft 493 kts 133°
2026-05-08 10:41 41.54351 27.10364 35071 ft 500 kts 117°
2026-05-08 10:41 41.53012 27.14651 35120 ft 501 kts 114°
2026-05-08 10:42 41.50316 27.23188 35096 ft 503 kts 116°
2026-05-08 10:42 41.47463 27.31723 35105 ft 504 kts 117°
2026-05-08 10:43 41.44590 27.40260 35108 ft 505 kts 117°
2026-05-08 10:43 41.41703 27.48808 35110 ft 506 kts 116°
2026-05-08 10:44 41.38805 27.57371 35107 ft 506 kts 116°
2026-05-08 10:44 41.36152 27.66072 35086 ft 510 kts 102°
2026-05-08 10:44 41.35890 27.70758 35130 ft 509 kts 84°
2026-05-08 10:45 41.36285 27.75381 35135 ft 509 kts 81°
2026-05-08 10:45 41.37141 27.84738 35114 ft 509 kts 82°
2026-05-08 10:46 41.37906 27.94115 35116 ft 510 kts 83°
2026-05-08 10:46 41.38500 28.03257 35084 ft 490 kts 91°
2026-05-08 10:46 41.37986 28.07643 35133 ft 472 kts 105°
2026-05-08 10:47 41.37242 28.11845 35103 ft 460 kts 102°
2026-05-08 10:47 41.36640 28.15973 35099 ft 446 kts 101°
2026-05-08 10:47 41.36071 28.19972 35072 ft 434 kts 101°
2026-05-08 10:47 41.35487 28.23858 34946 ft 425 kts 102°
2026-05-08 10:48 41.34910 28.27715 34622 ft 424 kts 102°
2026-05-08 10:48 41.34321 28.31570 34196 ft 425 kts 102°
2026-05-08 10:48 41.33732 28.35435 33689 ft 428 kts 102°
2026-05-08 10:48 41.33140 28.39344 32874 ft 436 kts 101°
2026-05-08 10:49 41.32534 28.43371 31757 ft 454 kts 101°
2026-05-08 10:49 41.31904 28.47578 30416 ft 475 kts 101°
2026-05-08 10:49 41.31250 28.51925 29153 ft 489 kts 101°
2026-05-08 10:49 41.30651 28.56336 28642 ft 476 kts 95°
2026-05-08 10:50 41.30536 28.60638 28238 ft 458 kts 88°
2026-05-08 10:50 41.30608 28.64827 27493 ft 450 kts 87°
2026-05-08 10:50 41.30697 28.68975 26662 ft 446 kts 88°
2026-05-08 10:50 41.30758 28.73071 25930 ft 440 kts 88°
2026-05-08 10:51 41.30788 28.77103 25273 ft 432 kts 89°
2026-05-08 10:51 41.30777 28.81060 24780 ft 421 kts 91°
2026-05-08 10:51 41.30670 28.84863 24555 ft 407 kts 92°
2026-05-08 10:51 41.30520 28.88663 24289 ft 416 kts 92°
2026-05-08 10:52 41.30355 28.92549 23973 ft 425 kts 93°
2026-05-08 10:52 41.30191 28.96472 23617 ft 423 kts 92°
2026-05-08 10:52 41.30041 29.00236 23251 ft 418 kts 92°
2026-05-08 10:52 41.29894 29.04070 22913 ft 413 kts 92°
2026-05-08 10:53 41.29751 29.07865 22576 ft 409 kts 92°
2026-05-08 10:53 41.29611 29.11628 22269 ft 406 kts 92°
2026-05-08 10:53 41.29474 29.15361 21963 ft 403 kts 92°
2026-05-08 10:53 41.29338 29.19027 21690 ft 401 kts 92°
2026-05-08 10:54 41.29199 29.22742 21343 ft 402 kts 92°
2026-05-08 10:54 41.29060 29.26451 21057 ft 400 kts 92°
2026-05-08 10:54 41.28920 29.30106 20758 ft 396 kts 92°
2026-05-08 10:54 41.28780 29.33736 20473 ft 391 kts 92°
2026-05-08 10:55 41.28639 29.37345 20138 ft 391 kts 92°
2026-05-08 10:55 41.28498 29.40938 19848 ft 388 kts 92°
2026-05-08 10:55 41.28357 29.44527 19554 ft 387 kts 92°
2026-05-08 10:55 41.28216 29.48085 19261 ft 385 kts 92°
2026-05-08 10:56 41.28074 29.51636 18965 ft 383 kts 92°
2026-05-08 10:56 41.27931 29.55162 18672 ft 379 kts 92°
2026-05-08 10:56 41.27789 29.58651 18378 ft 378 kts 92°
2026-05-08 10:56 41.27647 29.62086 18075 ft 376 kts 92°
2026-05-08 10:57 41.27505 29.65552 17727 ft 375 kts 92°
2026-05-08 10:57 41.27363 29.68999 17437 ft 372 kts 92°
2026-05-08 10:57 41.27077 29.75812 16865 ft 367 kts 92°
2026-05-08 10:58 41.26933 29.79193 16587 ft 366 kts 92°
2026-05-08 10:58 41.26789 29.82570 16303 ft 365 kts 92°
2026-05-08 10:58 41.26644 29.85937 16023 ft 365 kts 92°
2026-05-08 10:58 41.26499 29.89302 15748 ft 364 kts 92°
2026-05-08 10:59 41.26067 29.92557 15532 ft 352 kts 112°
2026-05-08 10:59 41.24709 29.95124 15388 ft 333 kts 140°
2026-05-08 10:59 41.22771 29.96702 14952 ft 325 kts 160°
2026-05-08 10:59 41.20607 29.97412 14520 ft 318 kts 176°
2026-05-08 11:00 41.18417 29.97408 14092 ft 314 kts 188°
2026-05-08 11:00 41.16317 29.96700 13586 ft 312 kts 207°
2026-05-08 11:00 41.14453 29.95254 13133 ft 309 kts 214°
2026-05-08 11:00 41.12632 29.93737 12629 ft 308 kts 214°
2026-05-08 11:01 41.10816 29.92232 12154 ft 307 kts 214°
2026-05-08 11:01 41.09012 29.90744 11667 ft 303 kts 213°
2026-05-08 11:01 41.07235 29.89289 11207 ft 298 kts 214°
2026-05-08 11:01 41.05480 29.87856 10739 ft 294 kts 214°
2026-05-08 11:02 41.03750 29.86443 10287 ft 290 kts 214°
2026-05-08 11:02 41.00457 29.83464 9533 ft 288 kts 230°
2026-05-08 11:02 40.99431 29.81237 9185 ft 283 kts 250°
2026-05-08 11:03 40.99060 29.78688 8789 ft 284 kts 270°
2026-05-08 11:03 40.99408 29.76116 8420 ft 288 kts 290°
2026-05-08 11:03 41.00465 29.73862 8047 ft 292 kts 311°
2026-05-08 11:03 41.02124 29.72294 7683 ft 297 kts 333°
2026-05-08 11:04 41.04140 29.71699 7303 ft 299 kts 356°
2026-05-08 11:04 41.06190 29.72139 6925 ft 301 kts 18°
2026-05-08 11:04 41.08026 29.73464 6590 ft 301 kts 29°
2026-05-08 11:04 41.09805 29.74917 6212 ft 300 kts 28°
2026-05-08 11:05 41.11588 29.76348 5820 ft 300 kts 29°
2026-05-08 11:05 41.13101 29.78168 5765 ft 291 kts 56°
2026-05-08 11:05 41.13751 29.80634 5745 ft 279 kts 85°
2026-05-08 11:05 41.13656 29.83132 5727 ft 265 kts 105°
2026-05-08 11:06 41.13018 29.85302 5722 ft 247 kts 124°
2026-05-08 11:06 41.11935 29.87020 5718 ft 238 kts 144°
2026-05-08 11:06 41.10550 29.88154 5717 ft 232 kts 163°
2026-05-08 11:06 41.08997 29.88658 5707 ft 227 kts 180°
2026-05-08 11:07 41.07385 29.88659 5733 ft 244 kts 192°
2026-05-08 11:07 41.05761 29.87939 5719 ft 250 kts 214°
2026-05-08 11:07 41.04260 29.86731 5692 ft 253 kts 214°
2026-05-08 11:07 41.02756 29.85568 5686 ft 248 kts 214°
2026-05-08 11:08 41.01311 29.84378 5716 ft 244 kts 220°
2026-05-08 11:08 41.00376 29.82606 5753 ft 243 kts 255°
2026-05-08 11:08 41.00447 29.80388 5737 ft 246 kts 290°
2026-05-08 11:08 41.01438 29.78532 5733 ft 248 kts 306°
2026-05-08 11:09 41.02337 29.76617 5716 ft 243 kts 291°
2026-05-08 11:09 41.02933 29.74499 5727 ft 246 kts 285°
2026-05-08 11:09 41.03215 29.72247 5257 ft 248 kts 262°
2026-05-08 11:09 41.02728 29.70122 5073 ft 237 kts 250°
2026-05-08 11:10 41.02186 29.68111 4795 ft 229 kts 250°
2026-05-08 11:10 41.01599 29.66197 4567 ft 220 kts 247°
2026-05-08 11:10 41.00966 29.64373 4333 ft 218 kts 245°
2026-05-08 11:10 41.00301 29.62567 4104 ft 219 kts 244°
2026-05-08 11:11 40.99654 29.60778 3920 ft 211 kts 248°
2026-05-08 11:11 40.99099 29.59014 3728 ft 204 kts 243°
2026-05-08 11:11 40.98428 29.57373 3633 ft 205 kts 243°
2026-05-08 11:11 40.97805 29.55666 3543 ft 201 kts 245°
2026-05-08 11:12 40.97230 29.54080 3501 ft 182 kts 244°
2026-05-08 11:12 40.96711 29.52659 3520 ft 167 kts 244°
2026-05-08 11:12 40.96083 29.51432 3474 ft 157 kts 237°
2026-05-08 11:12 40.95701 29.50065 3328 ft 165 kts 259°
2026-05-08 11:13 40.95352 29.48630 3020 ft 161 kts 237°
2026-05-08 11:13 40.94701 29.47490 2799 ft 154 kts 241°
2026-05-08 11:13 40.94396 29.46146 2615 ft 156 kts 259°
2026-05-08 11:13 40.94121 29.44721 2530 ft 160 kts 245°
2026-05-08 11:14 40.93547 29.43449 2360 ft 160 kts 240°
2026-05-08 11:14 40.92955 29.42216 2104 ft 156 kts 240°
2026-05-08 11:14 40.92402 29.40972 1837 ft 155 kts 241°
2026-05-08 11:14 40.91880 29.39758 1621 ft 149 kts 242°
2026-05-08 11:15 40.91443 29.38527 1311 ft 146 kts 248°
2026-05-08 11:15 40.91055 29.37307 1027 ft 138 kts 246°
2026-05-08 11:15 40.90652 29.36175 774 ft 137 kts 244°
2026-05-08 11:15 40.90223 29.35003 556 ft 144 kts 244°
2026-05-08 11:16 40.89803 29.33839 320 ft 138 kts 244°
2026-05-08 11:16 40.89414 29.32788 301 ft 113 kts 244°
2026-05-08 11:16 40.89140 29.32035 300 ft 69 kts 244°
2026-05-08 11:16 40.88989 29.31612 299 ft 40 kts 251°
2026-05-08 11:17 40.88967 29.31334 300 ft 14 kts 274°
2026-05-08 11:17 40.88972 29.31236 298 ft 10 kts 274°
2026-05-08 11:17 40.88974 29.31193 300 ft 0 kts 274°
2026-05-08 11:17 40.88974 29.31187 297 ft 2 kts 274°
2026-05-08 11:18 40.88992 29.31165 300 ft 6 kts 339°
2026-05-08 11:18 40.89041 29.31204 299 ft 10 kts 57°
2026-05-08 11:18 40.89073 29.31286 299 ft 10 kts 64°
2026-05-08 11:18 40.89104 29.31371 299 ft 11 kts 64°
2026-05-08 11:19 40.89129 29.31425 301 ft 11 kts 46°
2026-05-08 11:19 40.89197 29.31422 301 ft 11 kts 334°
2026-05-08 11:19 40.89234 29.31439 300 ft 6 kts 55°
2026-05-08 11:19 40.89258 29.31498 301 ft 8 kts 64°
2026-05-08 11:20 40.89290 29.31565 304 ft 9 kts 35°
2026-05-08 11:20 40.89352 29.31547 300 ft 8 kts 331°
2026-05-08 11:20 40.89383 29.31552 302 ft 4 kts 46°
2026-05-08 11:20 40.89400 29.31587 301 ft 5 kts 63°
2026-05-08 11:21 40.89414 29.31624 302 ft 4 kts 63°
2026-05-08 11:21 40.89422 29.31646 301 ft 0 kts 64°